Home > Weather > Carlisle > Past weeks

Flag for United Kingdom Past Weather in Carlisle, England, United Kingdom — Yesterday and Last 2 Weeks

Now
61 °F

Cool.


Feels Like: 61 °F
Forecast: 50 / 64 °F
Wind: N/A

Location: Carlisle

Current Time: Aug 28, 2016 at 1:25:02 PM

Latest Report: Aug 28, 2016 at 12:00 PM


Visibility: 9 mi

Pressure: 29.90 "Hg

Humidity: 86%

Dew Point: 57 °F

Location of CarlisleLocation

Past Weather in Carlisle — Graph

°F

Carlisle Temperature Yesterday

Maximum temperature yesterday: 72 °F (at 5:00 PM)
Minimum temperature yesterday: 51 °F (at 7:00 AM)
Average temperature yesterday: 62 °F

High & Low Weather Summary for the Past Weeks

 TemperatureHumidityPressure
High75 °F (Aug 16, 3:00 PM)100% (Aug 22, 4:00 AM)30.33 "Hg (Aug 22, 4:00 AM)
Low49 °F (Aug 15, 6:00 AM)47% (Aug 18, 6:00 PM)29.23 "Hg (Aug 20, 3:00 PM)
Average61 °F81%29.97 "Hg
* Reported Aug 13 12:00 PM — Aug 28 12:00 PM, Carlisle, Weather by CustomWeather, © 2016

Note: Actual official high and low records may vary slightly from our data, if they occured in-between our weather recording intervals... More about our weather records

Advertising

Carlisle Weather History for the Previous 24 Hours

Scroll right to see more
 ConditionsComfort  
Time TempWeatherWind HumidityBarometerVisibility
12:00 PM
Sun, Aug 28
61 °FCool.N/A86%29.90 "Hg9 mi
11:00 AM59 °FCool.N/A91%29.89 "Hg9 mi
10:00 AM58 °FCool.N/A92%29.89 "Hg9 mi
9:00 AM57 °FCool.N/A97%29.88 "Hg6 mi
8:00 AM56 °FCool.N/A98%29.85 "Hg3 mi
7:00 AM56 °FCool.N/A97%29.86 "Hg4 mi
6:00 AM57 °FCool.N/A93%29.86 "Hg4 mi
4:00 AM57 °FCool.N/A95%29.86 "Hg19 mi
3:00 AM56 °FCool.N/A96%29.87 "Hg15 mi
2:00 AM56 °FCool.N/A98%29.89 "Hg5 mi
1:00 AM57 °FCool.N/A94%29.92 "Hg2 mi
12:00 AM59 °FCool.N/A86%29.94 "Hg7 mi
7:00 PM
Sat, Aug 27
70 °FMild.N/A56%29.95 "Hg12 mi
6:00 PM71 °FMild.N/A51%29.96 "Hg11 mi
5:00 PM72 °FMild.N/A48%29.98 "Hg12 mi
4:00 PM71 °FMild.N/A48%30.01 "Hg12 mi
3:00 PM70 °FMild.N/A47%30.03 "Hg13 mi
2:00 PM70 °FMild.N/A50%30.06 "Hg12 mi
1:00 PM69 °FMild.N/A57%30.07 "Hg11 mi
Weather by CustomWeather, © 2016

See weather overviewHow to use our weather pages